CZ-6A DEB, 54343

Orbit data source: Space-Track

CZ-6A DEB, 54343 is space debris in SSO originally from a launch on Fri, 11 Nov 2022 UTC launched from the Taiyaun Space Center, China (TSC). Debris objects in space refer to the collection of defunct objects orbiting the Earth. Examples of debris include non-operational satellites, rocket bodies, and fragments generated from explosions, collisions, or faulty payload assembly.

Loading next visibility...
Identifier
54343, 2022-151CN
Orbit
SSO
Country
Flag of CNCN / PRC
Related business
Manufacturer
SAST
Mission
Spacecraft
Bus & Motor
Unknown
Mass
Unknown
Launch date (UTC)
2022-11-11 (4 years ago)
Launch vehicle
Unknown
Launch site
Taiyaun Space Center, China (TSC)
Object type
Payload
Rocket body
Debris
Shape & HBR
Unknown shape, 0.1 m
Radar Cross Section
Medium (>0.1 m² and <1 m²)

Expand to show TLE details & history
Last TLE update: 3 days ago

TLE from 3 days ago
0 CZ-6A DEB
1 54343U 22151CN  26170.50752543  .00000151  00000-0  10842-3 0  9992
2 54343  98.8359 171.6265 0041184 332.7246  27.1762 14.10714949184857
Epoch: 2026-06-19T12:10Z
TLE epoch observation values (Epoch: 2026-06-19T12:10:50.197Z)
Latitude
-0.00002°
Longitude
81.18184°
Altitude
833.337 km
Speed
7.45 km/s
True Right ascension
11h 26m 30s
True Declination
0° 00' 00"
Sunlit
Object was in daylight at epoch
Visualization orbit readout
Latitude
Unknown
Longitude
Unknown
Altitude
Unknown
Speed
Unknown
Apparent Right ascension
Unknown
Apparent Declination
Unknown
Sunlit
N/A
Visualization observer readout
Local Sidereal Time
23:19:26
Azimuth
Unknown
Elevation
Unknown
Doppler factor
Unknown
Orbital elements
Apogee altitude
883.888 km
Perigee altitude
824.318 km
Semi-major axis
7,232.24 km
Eccentricity
0.00412
Inclination
98.8359°
RAAN
171.6265°
Arg. of periapsis
332.7246°
True anomaly
27.39274°
Mean anomaly
27.1762°
Eccentric anomaly
27.28437°
Mean motion
3.52886 °/min
Orbital period
102.02 mins
BSTAR
0.00010842
Loading maneuver chart data...
Computing Atmospheric mass density...
Loading historical data...
Loading historical data...
Loading historical data...
Loading historical data...
Loading historical data...
Loading historical data...
Loading historical data...

Documentation

Showing up to 5 results
|